Flag for Germany Weather past 2 weeks in Recklinghausen, North Rhine-Westphalia, Germany

Now
50 °F

Light rain. Partly sunny.


Feels Like: 43 °F
Forecast: 41 / 47 °F
Wind: 23 mph from Southwest

Location: Dortmund / Wickede

Current Time: Mar 29, 2015 at 4:09:03 PM

Latest Report: Mar 29, 2015 at 3:20 PM


Visibility: N/A

Pressure: 29.39 "Hg

Humidity: 82%

Dew point: 45 °F

Location of RecklinghausenLocation

Historic Weather in Recklinghausen — Graph

°F

Recklinghausen temperature yesterday

Maximum temperature yesterday: 55 °F (at 12:50 PM)
Minimum temperature yesterday: 34 °F (at 5:20 AM)
Average temperature yesterday: 47 °F

Past Weeks' High & Low Weather Summary

 TemperatureHumidityPressure
High61 °F (Mar 17, 2:50 PM)93% (Mar 14, 7:20 PM)30.36 "Hg (Mar 14, 7:20 PM)
Low28 °F (Mar 23, 5:20 AM)39% (Mar 17, 3:20 PM)29.47 "Hg (Mar 29, 2:20 PM)
Average44 °F75%30.07 "Hg
* Reported Mar 14 1:20 PM — Mar 29 2:20 PM, Recklinghausen, Weather by CustomWeather, © 2015

Note: Actual official high and low records may vary slightly from our data, if they occured in-between our weather recording intervals... More about our weather records

Advertising

Recklinghausen weather history for previous 24 hours

 ConditionsComfort  
Time TempWeatherWind HumidityBarometerVisibility
2:20 PM
Sun, Mar 29
50 °FLight rain. Partly sunny.17 mph82%29.47 "HgN/A
1:50 PM48 °FLight rain. Partly sunny.17 mph87%29.50 "HgN/A
1:20 PM48 °FLight rain. Partly sunny.22 mph82%29.50 "HgN/A
12:50 PM48 °FLight rain. Partly sunny.17 mph87%29.53 "HgN/A
12:20 PM48 °FLight rain. Partly sunny.20 mph87%29.56 "HgN/A
11:50 AM48 °FLight rain. Broken clouds.18 mph82%29.56 "HgN/A
11:20 AM48 °FDrizzle. Partly sunny.20 mph87%29.59 "HgN/A
10:50 AM48 °FDrizzle. Broken clouds.18 mph82%29.59 "HgN/A
10:20 AM48 °FLight rain. Partly sunny.21 mph76%29.62 "Hg6 mi
9:50 AM48 °FDrizzle. Partly sunny.20 mph76%29.62 "HgN/A
9:20 AM48 °FSprinkles. Partly sunny.21 mph76%29.62 "Hg6 mi
8:50 AM50 °FSprinkles. Partly sunny.23 mph67%29.62 "Hg6 mi
8:20 AM50 °FPartly sunny.22 mph71%29.62 "HgN/A
7:50 AM50 °FPassing clouds.20 mph71%29.65 "HgN/A
7:20 AM50 °FPassing clouds.21 mph71%29.65 "HgN/A
6:50 AM50 °FPassing clouds.21 mph71%29.65 "HgN/A
6:20 AM50 °FSprinkles. Partly cloudy.23 mph76%29.65 "HgN/A
5:50 AM50 °FPassing clouds.24 mph76%29.65 "HgN/A
5:20 AM50 °FPassing clouds.23 mph76%29.68 "HgN/A
10:50 PM
Sat, Mar 28
50 °FPassing clouds.16 mph82%29.77 "HgN/A
10:20 PM50 °FPassing clouds.17 mph82%29.77 "HgN/A
9:50 PM50 °FLight rain. Passing clouds.17 mph82%29.77 "HgN/A
9:20 PM48 °FLight rain. Passing clouds.17 mph87%29.80 "HgN/A
8:50 PM50 °FPassing clouds.17 mph82%29.80 "HgN/A
8:20 PM50 °FPassing clouds.14 mph76%29.83 "HgN/A
7:50 PM48 °FPassing clouds.15 mph82%29.86 "HgN/A
7:20 PM48 °FPassing clouds.16 mph82%29.86 "HgN/A
6:50 PM48 °FPartly sunny.17 mph82%29.86 "HgN/A
6:20 PM48 °FPartly sunny.16 mph82%29.86 "HgN/A
5:50 PM48 °FPartly sunny.16 mph76%29.86 "HgN/A
5:20 PM48 °FPartly sunny.16 mph76%29.89 "HgN/A
4:50 PM48 °FPartly sunny.16 mph76%29.89 "HgN/A
4:20 PM48 °FPartly sunny.16 mph76%29.92 "HgN/A
Weather by CustomWeather, © 2015

See weather overviewHow to use our weather pages